owner,sensor,date,latitude,longitude,vertical_datum,wind_speed,wind_to_direction,wind_speed_of_gust,qcFlag 
TABS,ioos:station:wmo:42044:1,2012-03-01T00:00:00Z,26.1914,-97.0507,0.0,4.927413114,128.24246,6.07,'11111222,11111222,11111222' 
TABS,ioos:station:wmo:42044:1,2012-03-01T00:30:00Z,26.1914,-97.0507,0.0,5.514943336,127.9299874,7.21,'11111222,11111222,11111222' 
TABS,ioos:station:wmo:42044:1,2012-03-01T01:00:00Z,26.1914,-97.0507,0.0,5.270872793,128.7619976,6.68,'11111222,11111222,11111222' 
TABS,ioos:station:wmo:42044:1,2012-03-01T01:30:00Z,26.1914,-97.0507,0.0,5.235503796,129.4976348,7.66,'11111222,11111222,11111222' 
TABS,ioos:station:wmo:42044:1,2012-03-01T02:00:00Z,26.1914,-97.0507,0.0,5.552125719,129.0791712,6.89,'11111222,11111222,11111222' 
TABS,ioos:station:wmo:42044:1,2012-03-01T02:30:00Z,26.1914,-97.0507,0.0,5.474860729,129.7389022,6.64,'11111222,11111222,11111222' 
TABS,ioos:station:wmo:42044:1,2012-03-01T03:00:00Z,26.1914,-97.0507,0.0,5.016143937,127.304282,6.33,'11111222,11111222,11111222' 
TABS,ioos:station:wmo:42044:1,2012-03-01T03:30:00Z,26.1914,-97.0507,0.0,4.611518188,131.5719551,5.73,'11111222,11111222,11111222' 
TABS,ioos:station:wmo:42044:1,2012-03-01T04:00:00Z,26.1914,-97.0507,0.0,4.377956144,133.7971914,5.32,'11111222,11111222,11111222' 
TABS,ioos:station:wmo:42044:1,2012-03-01T04:30:00Z,26.1914,-97.0507,0.0,3.875783792,131.3392232,4.7,'11111222,11111222,11111222' 
TABS,ioos:station:wmo:42044:1,2012-03-01T05:00:00Z,26.1914,-97.0507,0.0,4.628714724,137.4518431,5.64,'11111222,11111222,11111222' 
TABS,ioos:station:wmo:42044:1,2012-03-01T05:30:00Z,26.1914,-97.0507,0.0,5.44165416,140.5182809,6.64,'11111222,11111222,11111222' 
TABS,ioos:station:wmo:42044:1,2012-03-01T06:00:00Z,26.1914,-97.0507,0.0,4.515927369,147.2955534,5.76,'11111222,11111222,11111222' 
TABS,ioos:station:wmo:42044:1,2012-03-01T06:30:00Z,26.1914,-97.0507,0.0,3.565010519,154.5852932,4.34,'11111222,11111222,11111222' 
TABS,ioos:station:wmo:42044:1,2012-03-01T07:00:00Z,26.1914,-97.0507,0.0,3.212864765,164.1038434,4.05,'11111222,11111222,11111222' 
TABS,ioos:station:wmo:42044:1,2012-03-01T07:30:00Z,26.1914,-97.0507,0.0,3.224158805,168.5508992,4.3,'11111222,11111222,11111222' 
TABS,ioos:station:wmo:42044:1,2012-03-01T08:00:00Z,26.1914,-97.0507,0.0,4.48829589,167.3883548,5.46,'11111222,11111222,11111222' 
TABS,ioos:station:wmo:42044:1,2012-03-01T08:30:00Z,26.1914,-97.0507,0.0,4.320567092,168.248177,5.53,'11111222,11111222,11111222' 
TABS,ioos:station:wmo:42044:1,2012-03-01T09:00:00Z,26.1914,-97.0507,0.0,4.819180428,167.7809261,5.88,'11111222,11111222,11111222' 
TABS,ioos:station:wmo:42044:1,2012-03-01T09:30:00Z,26.1914,-97.0507,0.0,4.758424109,167.7456968,5.96,'11111222,11111222,11111222' 
TABS,ioos:station:wmo:42044:1,2012-03-01T10:00:00Z,26.1914,-97.0507,0.0,4.933041658,173.3650283,6.26,'11111222,11111222,11111222' 
TABS,ioos:station:wmo:42044:1,2012-03-01T10:30:00Z,26.1914,-97.0507,0.0,4.734437665,173.0853589,5.79,'11111222,11111222,11111222' 
TABS,ioos:station:wmo:42044:1,2012-03-01T11:00:00Z,26.1914,-97.0507,0.0,4.918638023,171.936022,6.09,'11111222,11111222,11111222' 
TABS,ioos:station:wmo:42044:1,2012-03-01T11:30:00Z,26.1914,-97.0507,0.0,5.087012876,172.2046267,6.22,'11111222,11111222,11111222' 
TABS,ioos:station:wmo:42044:1,2012-03-01T12:00:00Z,26.1914,-97.0507,0.0,5.20331625,172.6020512,6.52,'11111222,11111222,11111222' 
TABS,ioos:station:wmo:42044:1,2012-03-01T12:30:00Z,26.1914,-97.0507,0.0,2.601691757,213.0793946,3.68,'11111222,11111222,11111222' 
TABS,ioos:station:wmo:42044:1,2012-03-01T13:00:00Z,26.1914,-97.0507,0.0,1.893805692,229.4972463,2.28,'11111222,11111222,11111222' 
TABS,ioos:station:wmo:42044:1,2012-03-01T13:30:00Z,26.1914,-97.0507,0.0,2.169101196,205.9745437,2.6,'11111222,11111222,11111222' 
TABS,ioos:station:wmo:42044:1,2012-03-01T14:00:00Z,26.1914,-97.0507,0.0,2.122851855,182.9704341,2.68,'11111222,11111222,11111222' 
TABS,ioos:station:wmo:42044:1,2012-03-01T14:30:00Z,26.1914,-97.0507,0.0,2.221936093,174.0587046,2.65,'11111222,11111222,11111222' 
TABS,ioos:station:wmo:42044:1,2012-03-01T15:00:00Z,26.1914,-97.0507,0.0,3.1503968,179.0908321,4.03,'11111222,11111222,11111222' 
TABS,ioos:station:wmo:42044:1,2012-03-01T15:30:00Z,26.1914,-97.0507,0.0,4.061736082,169.2159378,4.99,'11111222,11111222,11111222' 
TABS,ioos:station:wmo:42044:1,2012-03-01T16:00:00Z,26.1914,-97.0507,0.0,3.758324095,159.9259779,4.48,'11111222,11111222,11111222' 
TABS,ioos:station:wmo:42044:1,2012-03-01T16:30:00Z,26.1914,-97.0507,0.0,3.095884365,161.7408782,3.98,'11111222,11111222,11111222' 
TABS,ioos:station:wmo:42044:1,2012-03-01T17:00:00Z,26.1914,-97.0507,0.0,3.760332432,158.1422637,4.81,'11111222,11111222,11111222' 
TABS,ioos:station:wmo:42044:1,2012-03-01T17:30:00Z,26.1914,-97.0507,0.0,3.430364412,152.7629435,4.6,'11111222,11111222,11111222' 
TABS,ioos:station:wmo:42044:1,2012-03-01T18:00:00Z,26.1914,-97.0507,0.0,3.837251621,141.66696,4.67,'11111222,11111222,11111222' 
TABS,ioos:station:wmo:42044:1,2012-03-01T18:30:00Z,26.1914,-97.0507,0.0,3.882087068,142.7466627,4.77,'11111222,11111222,11111222' 
TABS,ioos:station:wmo:42044:1,2012-03-01T19:00:00Z,26.1914,-97.0507,0.0,3.260138034,142.6031534,4.0,'11111222,11111222,11111222' 
TABS,ioos:station:wmo:42044:1,2012-03-01T19:30:00Z,26.1914,-97.0507,0.0,4.307586331,133.5893782,5.4,'11111222,11111222,11111222' 
TABS,ioos:station:wmo:42044:1,2012-03-01T20:00:00Z,26.1914,-97.0507,0.0,4.194901668,129.0014342,5.08,'11111222,11111222,11111222' 
TABS,ioos:station:wmo:42044:1,2012-03-01T20:30:00Z,26.1914,-97.0507,0.0,4.357338637,141.7101368,6.05,'11111222,11111222,11111222' 
TABS,ioos:station:wmo:42044:1,2012-03-01T21:00:00Z,26.1914,-97.0507,0.0,3.992004509,143.0442834,5.15,'11111222,11111222,11111222' 
TABS,ioos:station:wmo:42044:1,2012-03-01T21:30:00Z,26.1914,-97.0507,0.0,3.219083721,136.8884993,4.04,'11111222,11111222,11111222' 
TABS,ioos:station:wmo:42044:1,2012-03-01T22:00:00Z,26.1914,-97.0507,0.0,3.318101867,143.5793611,4.16,'11111222,11111222,11111222' 
TABS,ioos:station:wmo:42044:1,2012-03-01T22:30:00Z,26.1914,-97.0507,0.0,3.075987646,134.6051796,3.91,'11111222,11111222,11111222' 
TABS,ioos:station:wmo:42044:1,2012-03-01T23:00:00Z,26.1914,-97.0507,0.0,3.035951251,139.5423007,3.76,'11111222,11111222,11111222' 
TABS,ioos:station:wmo:42044:1,2012-03-01T23:30:00Z,26.1914,-97.0507,0.0,2.293141949,140.1307507,3.0,'11111222,11111222,11111222' 
TABS,ioos:station:wmo:42044:1,2012-03-02T00:00:00Z,26.1914,-97.0507,0.0,3.357737333,128.713437,4.23,'11111222,11111222,11111222' 
TABS,ioos:station:wmo:42044:1,2012-03-02T00:30:00Z,26.1914,-97.0507,0.0,4.172025887,135.3887548,5.04,'11111222,11111222,11111222' 
TABS,ioos:station:wmo:42044:1,2012-03-02T01:00:00Z,26.1914,-97.0507,0.0,4.821752793,137.9424371,5.76,'11111222,11111222,11111222' 
TABS,ioos:station:wmo:42044:1,2012-03-02T01:30:00Z,26.1914,-97.0507,0.0,4.540418483,136.0711376,5.75,'11111222,11111222,11111222' 
TABS,ioos:station:wmo:42044:1,2012-03-02T02:00:00Z,26.1914,-97.0507,0.0,4.232079867,142.7783981,5.44,'11111222,11111222,11111222' 
TABS,ioos:station:wmo:42044:1,2012-03-02T02:30:00Z,26.1914,-97.0507,0.0,4.199547595,141.5748729,5.28,'11111222,11111222,11111222' 
TABS,ioos:station:wmo:42044:1,2012-03-02T03:00:00Z,26.1914,-97.0507,0.0,4.160697057,148.5641904,5.19,'11111222,11111222,11111222' 
TABS,ioos:station:wmo:42044:1,2012-03-02T03:30:00Z,26.1914,-97.0507,0.0,4.469317621,148.7287246,5.56,'11111222,11111222,11111222' 
TABS,ioos:station:wmo:42044:1,2012-03-02T04:00:00Z,26.1914,-97.0507,0.0,5.910135362,155.0829385,7.64,'11111222,11111222,11111222' 
TABS,ioos:station:wmo:42044:1,2012-03-02T04:30:00Z,26.1914,-97.0507,0.0,6.332850859,155.6611401,8.33,'11111222,11111222,11111222' 
TABS,ioos:station:wmo:42044:1,2012-03-02T05:00:00Z,26.1914,-97.0507,0.0,6.775485222,157.0681636,8.52,'11111222,11111222,11111222' 
TABS,ioos:station:wmo:42044:1,2012-03-02T05:30:00Z,26.1914,-97.0507,0.0,6.618519472,157.6201277,8.03,'11111222,11111222,11111222' 
TABS,ioos:station:wmo:42044:1,2012-03-02T06:00:00Z,26.1914,-97.0507,0.0,5.806418862,159.5366069,7.4,'11111222,11111222,11111222' 
TABS,ioos:station:wmo:42044:1,2012-03-02T06:30:00Z,26.1914,-97.0507,0.0,4.487326598,161.2826647,5.62,'11111222,11111222,11111222' 
TABS,ioos:station:wmo:42044:1,2012-03-02T07:00:00Z,26.1914,-97.0507,0.0,4.942711806,156.1319363,6.09,'11111222,11111222,11111222' 
TABS,ioos:station:wmo:42044:1,2012-03-02T07:30:00Z,26.1914,-97.0507,0.0,5.038342982,151.553182,6.18,'11111222,11111222,11111222' 
TABS,ioos:station:wmo:42044:1,2012-03-02T08:00:00Z,26.1914,-97.0507,0.0,5.899644057,152.4362325,7.31,'11111222,11111222,11111222' 
TABS,ioos:station:wmo:42044:1,2012-03-02T08:30:00Z,26.1914,-97.0507,0.0,5.539539692,151.5384014,6.98,'11111222,11111222,11111222' 
TABS,ioos:station:wmo:42044:1,2012-03-02T09:00:00Z,26.1914,-97.0507,0.0,6.84505661,158.7584227,8.45,'11111222,11111222,11111222' 
TABS,ioos:station:wmo:42044:1,2012-03-02T09:30:00Z,26.1914,-97.0507,0.0,6.517675966,162.0378928,7.69,'11111222,11111222,11111222' 
TABS,ioos:station:wmo:42044:1,2012-03-02T10:00:00Z,26.1914,-97.0507,0.0,6.604619595,165.3538232,7.8,'11111222,11111222,11111222' 
TABS,ioos:station:wmo:42044:1,2012-03-02T10:30:00Z,26.1914,-97.0507,0.0,7.987596635,164.3110302,9.53,'11111222,11111222,11111222' 
TABS,ioos:station:wmo:42044:1,2012-03-02T11:00:00Z,26.1914,-97.0507,0.0,8.515973227,169.376447,10.31,'11111222,11111222,11111222' 
TABS,ioos:station:wmo:42044:1,2012-03-02T11:30:00Z,26.1914,-97.0507,0.0,9.016723352,169.6499199,10.56,'11111222,11111222,11111222' 
TABS,ioos:station:wmo:42044:1,2012-03-02T12:00:00Z,26.1914,-97.0507,0.0,7.924064614,170.7043288,9.61,'11111222,11111222,11111222' 
TABS,ioos:station:wmo:42044:1,2012-03-02T12:30:00Z,26.1914,-97.0507,0.0,7.415072488,171.3128153,8.67,'11111222,11111222,11111222' 
TABS,ioos:station:wmo:42044:1,2012-03-02T13:00:00Z,26.1914,-97.0507,0.0,7.578555271,167.1926233,8.68,'11111222,11111222,11111222' 
TABS,ioos:station:wmo:42044:1,2012-03-02T13:30:00Z,26.1914,-97.0507,0.0,7.66374582,164.6402145,8.95,'11111222,11111222,11111222' 
TABS,ioos:station:wmo:42044:1,2012-03-02T14:00:00Z,26.1914,-97.0507,0.0,7.963830737,160.5642119,9.29,'11111222,11111222,11111222' 
TABS,ioos:station:wmo:42044:1,2012-03-02T14:30:00Z,26.1914,-97.0507,0.0,8.095492573,161.3414948,10.02,'11111222,11111222,11111222' 
TABS,ioos:station:wmo:42044:1,2012-03-02T15:00:00Z,26.1914,-97.0507,0.0,6.681324719,158.1192305,7.71,'11111222,11111222,11111222' 
TABS,ioos:station:wmo:42044:1,2012-03-02T15:30:00Z,26.1914,-97.0507,0.0,6.062680925,156.268072,7.18,'11111222,11111222,11111222' 
TABS,ioos:station:wmo:42044:1,2012-03-02T16:00:00Z,26.1914,-97.0507,0.0,4.033422864,159.992878,4.85,'11111222,11111222,11111222' 
TABS,ioos:station:wmo:42044:1,2012-03-02T16:30:00Z,26.1914,-97.0507,0.0,3.194056981,160.9980397,3.93,'11111222,11111222,11111222' 
TABS,ioos:station:wmo:42044:1,2012-03-02T17:00:00Z,26.1914,-97.0507,0.0,2.374973684,144.7711062,2.88,'11111222,11111222,11111222' 
TABS,ioos:station:wmo:42044:1,2012-03-02T17:30:00Z,26.1914,-97.0507,0.0,0.870057469,142.4718574,1.99,'11111222,11111222,11111222' 
TABS,ioos:station:wmo:42044:1,2012-03-02T18:00:00Z,26.1914,-97.0507,0.0,2.689386547,132.5892916,3.32,'11111222,11111222,11111222' 
TABS,ioos:station:wmo:42044:1,2012-03-02T18:30:00Z,26.1914,-97.0507,0.0,1.550806242,122.3581929,2.36,'11111222,11111222,11111222' 
TABS,ioos:station:wmo:42044:1,2012-03-02T19:00:00Z,26.1914,-97.0507,0.0,1.758408371,123.8711524,2.58,'11111222,11111222,11111222' 
TABS,ioos:station:wmo:42044:1,2012-03-02T19:30:00Z,26.1914,-97.0507,0.0,2.966968149,114.4922647,3.7,'11111222,11111222,11111222' 
TABS,ioos:station:wmo:42044:1,2012-03-02T20:00:00Z,26.1914,-97.0507,0.0,2.894995682,102.1642638,3.59,'11111222,11111222,11111222' 
TABS,ioos:station:wmo:42044:1,2012-03-02T20:30:00Z,26.1914,-97.0507,0.0,2.829363886,119.1926394,3.52,'11111222,11111222,11111222' 
TABS,ioos:station:wmo:42044:1,2012-03-02T21:00:00Z,26.1914,-97.0507,0.0,3.475888376,117.9661826,4.6,'11111222,11111222,11111222' 
TABS,ioos:station:wmo:42044:1,2012-03-02T21:30:00Z,26.1914,-97.0507,0.0,3.263816784,121.5963487,4.14,'11111222,11111222,11111222' 
TABS,ioos:station:wmo:42044:1,2012-03-02T22:00:00Z,26.1914,-97.0507,0.0,3.146505999,108.723242,3.99,'11111222,11111222,11111222' 
TABS,ioos:station:wmo:42044:1,2012-03-02T22:30:00Z,26.1914,-97.0507,0.0,3.35800536,120.6129615,4.4,'11111222,11111222,11111222' 
TABS,ioos:station:wmo:42044:1,2012-03-02T23:00:00Z,26.1914,-97.0507,0.0,3.298150997,82.5082715,4.19,'11111222,11111222,11111222' 
TABS,ioos:station:wmo:42044:1,2012-03-02T23:30:00Z,26.1914,-97.0507,0.0,3.937207132,97.8835418,4.93,'11111222,11111222,11111222' 
TABS,ioos:station:wmo:42044:1,2012-03-03T00:00:00Z,26.1914,-97.0507,0.0,3.203903869,76.09348702,4.57,'11111222,11111222,11111222' 
TABS,ioos:station:wmo:42044:1,2012-03-03T00:30:00Z,26.1914,-97.0507,0.0,2.791146718,88.35714322,3.43,'11111222,11111222,11111222' 
TABS,ioos:station:wmo:42044:1,2012-03-03T01:00:00Z,26.1914,-97.0507,0.0,3.702283079,99.64081524,4.52,'11111222,11111222,11111222' 
TABS,ioos:station:wmo:42044:1,2012-03-03T01:30:00Z,26.1914,-97.0507,0.0,3.56040728,110.7259313,4.61,'11111222,11111222,11111222' 
TABS,ioos:station:wmo:42044:1,2012-03-03T02:00:00Z,26.1914,-97.0507,0.0,4.138647122,128.919589,5.2,'11111222,11111222,11111222' 
TABS,ioos:station:wmo:42044:1,2012-03-03T02:30:00Z,26.1914,-97.0507,0.0,3.414630287,124.6212075,4.45,'11111222,11111222,11111222' 
TABS,ioos:station:wmo:42044:1,2012-03-03T03:00:00Z,26.1914,-97.0507,0.0,3.931615444,134.5881239,5.33,'11111222,11111222,11111222' 
TABS,ioos:station:wmo:42044:1,2012-03-03T03:30:00Z,26.1914,-97.0507,0.0,3.344682347,135.3637081,4.19,'11111222,11111222,11111222' 
TABS,ioos:station:wmo:42044:1,2012-03-03T04:00:00Z,26.1914,-97.0507,0.0,2.536000789,126.8250465,3.46,'11111222,11111222,11111222' 
TABS,ioos:station:wmo:42044:1,2012-03-03T04:30:00Z,26.1914,-97.0507,0.0,1.756416807,131.7693133,2.47,'11111222,11111222,11111222' 
TABS,ioos:station:wmo:42044:1,2012-03-03T05:00:00Z,26.1914,-97.0507,0.0,1.958009193,126.6946589,2.71,'11111222,11111222,11111222' 
TABS,ioos:station:wmo:42044:1,2012-03-03T05:30:00Z,26.1914,-97.0507,0.0,2.164901845,136.8720563,3.35,'11111222,11111222,11111222' 
TABS,ioos:station:wmo:42044:1,2012-03-03T06:00:00Z,26.1914,-97.0507,0.0,2.583118271,137.3536071,3.63,'11111222,11111222,11111222' 
TABS,ioos:station:wmo:42044:1,2012-03-03T06:30:00Z,26.1914,-97.0507,0.0,2.47008097,137.4613646,3.2,'11111222,11111222,11111222' 
TABS,ioos:station:wmo:42044:1,2012-03-03T07:00:00Z,26.1914,-97.0507,0.0,2.19592805,140.7292536,3.11,'11111222,11111222,11111222' 
TABS,ioos:station:wmo:42044:1,2012-03-03T07:30:00Z,26.1914,-97.0507,0.0,2.987741622,145.0868238,3.84,'11111222,11111222,11111222' 
TABS,ioos:station:wmo:42044:1,2012-03-03T08:00:00Z,26.1914,-97.0507,0.0,2.102308255,157.3384697,2.87,'11111222,11111222,11111222' 
TABS,ioos:station:wmo:42044:1,2012-03-03T08:30:00Z,26.1914,-97.0507,0.0,1.388416364,160.6517842,2.19,'11111222,11111222,11111222' 
TABS,ioos:station:wmo:42044:1,2012-03-03T09:00:00Z,26.1914,-97.0507,0.0,0.637887137,9.019090882,1.52,'11111222,11111222,11111222' 
TABS,ioos:station:wmo:42044:1,2012-03-03T09:30:00Z,26.1914,-97.0507,0.0,1.7,359.9997895,2.51,'11111222,11144222,11111222' 
TABS,ioos:station:wmo:42044:1,2012-03-03T10:00:00Z,26.1914,-97.0507,0.0,1.188780888,347.3664571,2.39,'11111222,11111222,11111222' 
TABS,ioos:station:wmo:42044:1,2012-03-03T10:30:00Z,26.1914,-97.0507,0.0,2.169239498,354.7097207,3.14,'11111222,11111222,11111222' 
TABS,ioos:station:wmo:42044:1,2012-03-03T11:00:00Z,26.1914,-97.0507,0.0,3.702283079,357.9875271,4.98,'11111222,11111222,11111222' 
TABS,ioos:station:wmo:42044:1,2012-03-03T11:30:00Z,26.1914,-97.0507,0.0,3.724352293,357.2295802,4.88,'11111222,11111222,11111222' 
TABS,ioos:station:wmo:42044:1,2012-03-03T12:00:00Z,26.1914,-97.0507,0.0,3.84749269,3.576115553,5.13,'11111222,11111222,11111222' 
TABS,ioos:station:wmo:42044:1,2012-03-03T12:30:00Z,26.1914,-97.0507,0.0,5.298726262,350.1108466,6.93,'11111222,11111222,11111222' 
TABS,ioos:station:wmo:42044:1,2012-03-03T13:00:00Z,26.1914,-97.0507,0.0,7.518889546,13.53698621,12.73,'11111222,11111222,11111222' 
TABS,ioos:station:wmo:42044:1,2012-03-03T13:30:00Z,26.1914,-97.0507,0.0,5.592003219,53.06829166,12.63,'11111222,11111222,11111222' 
TABS,ioos:station:wmo:42044:1,2012-03-03T14:00:00Z,26.1914,-97.0507,0.0,5.30019811,42.78240237,10.93,'11111222,11111222,11111222' 
TABS,ioos:station:wmo:42044:1,2012-03-03T14:30:00Z,26.1914,-97.0507,0.0,4.914926246,34.30409857,11.23,'11111222,11111222,11111222' 
TABS,ioos:station:wmo:42044:1,2012-03-03T15:00:00Z,26.1914,-97.0507,0.0,4.08496022,23.36407938,11.93,'11111222,11111222,11111222' 
TABS,ioos:station:wmo:42044:1,2012-03-03T15:30:00Z,26.1914,-97.0507,0.0,2.545741542,45.6362764,10.94,'11111222,11111222,11111222' 
TABS,ioos:station:wmo:42044:1,2012-03-03T16:00:00Z,26.1914,-97.0507,0.0,3.060359456,98.07755081,12.24,'11111222,11111222,11111222' 
TABS,ioos:station:wmo:42044:1,2012-03-03T16:30:00Z,26.1914,-97.0507,0.0,2.299304243,115.2280114,11.49,'11111222,11111222,11111222' 
TABS,ioos:station:wmo:42044:1,2012-03-03T17:00:00Z,26.1914,-97.0507,0.0,0.9347727,117.387779,11.26,'11111222,11111222,11111222' 
TABS,ioos:station:wmo:42044:1,2012-03-03T17:30:00Z,26.1914,-97.0507,0.0,1.440138882,189.5933223,10.87,'11111222,11111222,11111222' 
TABS,ioos:station:wmo:42044:1,2012-03-03T18:00:00Z,26.1914,-97.0507,0.0,1.516476179,152.0833627,11.85,'11111222,11111222,11111222' 
TABS,ioos:station:wmo:42044:1,2012-03-03T18:30:00Z,26.1914,-97.0507,0.0,2.191278166,147.1079576,12.42,'11111222,11111222,11111222' 
TABS,ioos:station:wmo:42044:1,2012-03-03T19:00:00Z,26.1914,-97.0507,0.0,1.464923206,175.3015409,11.72,'11111222,11111222,11111222' 
TABS,ioos:station:wmo:42044:1,2012-03-03T19:30:00Z,26.1914,-97.0507,0.0,1.343465668,190.7246339,11.07,'11111222,11111222,11111222' 
TABS,ioos:station:wmo:42044:1,2012-03-03T20:00:00Z,26.1914,-97.0507,0.0,2.746124542,124.6163193,10.86,'11111222,11111222,11111222' 
TABS,ioos:station:wmo:42044:1,2012-03-03T20:30:00Z,26.1914,-97.0507,0.0,2.231815405,87.68845303,10.24,'11111222,11111222,11111222' 
TABS,ioos:station:wmo:42044:1,2012-03-03T21:00:00Z,26.1914,-97.0507,0.0,2.296823894,76.14487463,9.46,'11111222,11111222,11111222' 
TABS,ioos:station:wmo:42044:1,2012-03-03T21:30:00Z,26.1914,-97.0507,0.0,1.783732043,80.64289298,10.28,'11111222,11111222,11111222' 
TABS,ioos:station:wmo:42044:1,2012-03-03T22:00:00Z,26.1914,-97.0507,0.0,1.911256131,75.45441035,8.31,'11111222,11111222,11111222' 
TABS,ioos:station:wmo:42044:1,2012-03-03T22:30:00Z,26.1914,-97.0507,0.0,1.921301642,60.36573359,7.78,'11111222,11111222,11111222' 
TABS,ioos:station:wmo:42044:1,2012-03-03T23:00:00Z,26.1914,-97.0507,0.0,2.333238093,38.73620834,7.38,'11111222,11111222,11111222' 
TABS,ioos:station:wmo:42044:1,2012-03-03T23:30:00Z,26.1914,-97.0507,0.0,2.534640014,42.12132154,7.88,'11111222,11111222,11111222' 
TABS,ioos:station:wmo:42044:1,2012-03-04T00:00:00Z,26.1914,-97.0507,0.0,2.900379286,43.32321719,8.84,'11111222,11111222,11111222' 
TABS,ioos:station:wmo:42044:1,2012-03-04T00:30:00Z,26.1914,-97.0507,0.0,3.496927223,49.5227804,8.64,'11111222,11111222,11111222' 
TABS,ioos:station:wmo:42044:1,2012-03-04T01:00:00Z,26.1914,-97.0507,0.0,2.856606378,39.31732898,8.85,'11111222,11111222,11111222' 
TABS,ioos:station:wmo:42044:1,2012-03-04T01:30:00Z,26.1914,-97.0507,0.0,2.731226831,42.9225144,9.71,'11111222,11111222,11111222' 
TABS,ioos:station:wmo:42044:1,2012-03-04T02:00:00Z,26.1914,-97.0507,0.0,3.204808887,51.84244172,9.31,'11111222,11111222,11111222' 
TABS,ioos:station:wmo:42044:1,2012-03-04T02:30:00Z,26.1914,-97.0507,0.0,3.242298567,33.29768418,8.59,'11111222,11111222,11111222' 
TABS,ioos:station:wmo:42044:1,2012-03-04T03:00:00Z,26.1914,-97.0507,0.0,3.7727046,32.55244061,9.54,'11111222,11111222,11111222' 
TABS,ioos:station:wmo:42044:1,2012-03-04T03:30:00Z,26.1914,-97.0507,0.0,3.92474203,41.48774987,10.48,'11111222,11111222,11111222' 
TABS,ioos:station:wmo:42044:1,2012-03-04T04:00:00Z,26.1914,-97.0507,0.0,4.179724871,46.06597761,9.16,'11111222,11111222,11111222' 
TABS,ioos:station:wmo:42044:1,2012-03-04T04:30:00Z,26.1914,-97.0507,0.0,4.420192304,58.0354906,9.92,'11111222,11111222,11111222' 
TABS,ioos:station:wmo:42044:1,2012-03-04T05:00:00Z,26.1914,-97.0507,0.0,4.404089009,59.12514044,10.0,'11111222,11111222,11111222' 
TABS,ioos:station:wmo:42044:1,2012-03-04T05:30:00Z,26.1914,-97.0507,0.0,5.094330182,64.28968542,11.03,'11111222,11111222,11111222' 
TABS,ioos:station:wmo:42044:1,2012-03-04T06:00:00Z,26.1914,-97.0507,0.0,4.898081257,55.9851564,10.37,'11111222,11111222,11111222' 
TABS,ioos:station:wmo:42044:1,2012-03-04T06:30:00Z,26.1914,-97.0507,0.0,5.165510623,57.57099846,9.41,'11111222,11111222,11111222' 
TABS,ioos:station:wmo:42044:1,2012-03-04T07:00:00Z,26.1914,-97.0507,0.0,5.17403131,53.32909457,9.71,'11111222,11111222,11111222' 
TABS,ioos:station:wmo:42044:1,2012-03-04T07:30:00Z,26.1914,-97.0507,0.0,4.527537962,51.6363176,8.91,'11111222,11111222,11111222' 
TABS,ioos:station:wmo:42044:1,2012-03-04T08:00:00Z,26.1914,-97.0507,0.0,4.556851984,48.8255784,7.83,'11111222,11111222,11111222' 
TABS,ioos:station:wmo:42044:1,2012-03-04T08:30:00Z,26.1914,-97.0507,0.0,4.576953135,46.68176235,6.9,'11111222,11111222,11111222' 
TABS,ioos:station:wmo:42044:1,2012-03-04T09:00:00Z,26.1914,-97.0507,0.0,4.144840166,48.61869091,6.22,'11111222,11111222,11111222' 
TABS,ioos:station:wmo:42044:1,2012-03-04T09:30:00Z,26.1914,-97.0507,0.0,3.790118732,45.21347304,5.85,'11111222,11111222,11111222' 
TABS,ioos:station:wmo:42044:1,2012-03-04T10:00:00Z,26.1914,-97.0507,0.0,3.643583401,43.10905824,5.45,'11111222,11111222,11111222' 
TABS,ioos:station:wmo:42044:1,2012-03-04T10:30:00Z,26.1914,-97.0507,0.0,3.527775503,48.4470631,5.89,'11111222,11111222,11111222' 
TABS,ioos:station:wmo:42044:1,2012-03-04T11:00:00Z,26.1914,-97.0507,0.0,2.839383736,42.00190271,4.5,'11111222,11111222,11111222' 
TABS,ioos:station:wmo:42044:1,2012-03-04T11:30:00Z,26.1914,-97.0507,0.0,2.642820463,31.22373763,4.07,'11111222,11111222,11111222' 
TABS,ioos:station:wmo:42044:1,2012-03-04T12:00:00Z,26.1914,-97.0507,0.0,1.947434209,29.19720731,3.43,'11111222,11111222,11111222' 
TABS,ioos:station:wmo:42044:1,2012-03-04T12:30:00Z,26.1914,-97.0507,0.0,1.431782106,12.09451834,2.36,'11111222,11111222,11111222' 
TABS,ioos:station:wmo:42044:1,2012-03-04T13:00:00Z,26.1914,-97.0507,0.0,3.977562067,282.0444253,5.42,'11111222,11111222,11111222' 
TABS,ioos:station:wmo:42044:1,2012-03-04T13:30:00Z,26.1914,-97.0507,0.0,3.810577384,281.0445138,4.97,'11111222,11111222,11111222' 
TABS,ioos:station:wmo:42044:1,2012-03-04T14:00:00Z,26.1914,-97.0507,0.0,3.604719129,285.1156778,5.12,'11111222,11111222,11111222' 
TABS,ioos:station:wmo:42044:1,2012-03-04T14:30:00Z,26.1914,-97.0507,0.0,3.252137758,280.2733066,4.7,'11111222,11111222,11111222' 
TABS,ioos:station:wmo:42044:1,2012-03-04T15:00:00Z,26.1914,-97.0507,0.0,3.122707159,272.3859385,4.38,'11111222,11111222,11111222' 
TABS,ioos:station:wmo:42044:1,2012-03-04T15:30:00Z,26.1914,-97.0507,0.0,2.834872131,275.8714657,3.98,'11111222,11111222,11111222' 
TABS,ioos:station:wmo:42044:1,2012-03-04T16:00:00Z,26.1914,-97.0507,0.0,3.32006024,270.3451503,4.45,'11111222,11111222,11111222' 
TABS,ioos:station:wmo:42044:1,2012-03-04T16:30:00Z,26.1914,-97.0507,0.0,3.053342431,261.5249262,4.29,'11111222,11111222,11111222' 
TABS,ioos:station:wmo:42044:1,2012-03-04T17:00:00Z,26.1914,-97.0507,0.0,2.520099204,258.5563301,3.6,'11111222,11111222,11111222' 
TABS,ioos:station:wmo:42044:1,2012-03-04T17:30:00Z,26.1914,-97.0507,0.0,2.432611765,248.2861157,3.25,'11111222,11111222,11111222' 
TABS,ioos:station:wmo:42044:1,2012-03-04T18:00:00Z,26.1914,-97.0507,0.0,1.991230775,245.3655939,3.12,'11111222,11111222,11111222' 
TABS,ioos:station:wmo:42044:1,2012-03-04T18:30:00Z,26.1914,-97.0507,0.0,1.661926593,219.6291231,2.51,'11111222,11111222,11111222' 